Погода Верхотурье

Погода Верхотурье : погода сейчас, прогноз погоды и архив. Всё, что Вы хотите узнать о погоде Верхотурье!

Хотите узнать прогноз погоды Верхотурье? Тогда Вам сюда: Погода Верхотурье

Поиск расширенной информации на нашем сайте:

Другие новости

Новости СМИ2

Главная страница сайта

Новости сайта

03.07.2017

Напоминаем, что на нашем специализированном сайте Метеоцентр.Азия вы можете получить высокодетализированные автоматические прогнозы погоды по пунктам России, СНГ и мира в авиационном формате (включающие направление и скорость ветра, видимость, явления погоды, количество и форму облачности, нижнюю и верхнюю границу облачности).

Рекомендуем: Кольчуг цветмет цены.

Погода Верхотурье - сегодня

Время (UTC), дата Ветер
(°,м/с) 
Видим.   Явления Облачность Т
(°С)
Тd
(°С)
f(%) Тe
(°С)
Pmin
(гПа)
dP
(гПа)
Po
(мм)
O2
(г/м3)
Тmin Tmax R s Состояние
почвы
15 09.12.17 340 (С) 4000 м  слаб. снег  10/10 300 м 
[Frnb|Ns]
-7 -8.9 86 -10  1012.5  0.1  747  310    -6  0.2     
18 09.12.17 340 (С) 4000 м  слаб. снег  10/10 300 м 
[Frnb|Ns]
-7.4 -9.4 86 -11  1012.6  0.1  747  310           
21 09.12.17 350 (С) 4000 м  слаб. снег  10/10 300 м 
[Frnb|Ns]
-7.7 -9.8 85 -10  1012.7  0.2  747  311           
00 10.12.17 330 (СЗ) 4000 м  слаб. снег  10/8 300 м средняя 
[Frnb|As trans]
-8.4 -10.7 83 -11  1013.6  0.8  748  312           
03 10.12.17 340 (С) 4000 м  слаб. снег  10/4 300 м средняя 
[Frnb|As trans]
-8.1 -10.3 84 -11  1015  1.4  749  312  -8.5    0.5  10  равномерный
сухой снег
100% 
06 10.12.17 340 (С) 10 км  слаб. снег  10/5 300 м средняя 
[Frnb|As trans]
-8.2 -10.4 84 -11  1016.9  1.8  750  313           
09 10.12.17 350 (С) 10 км  слаб. снег  10/3 600 м средняя 
[Sc|Ac As]
-8 -11 79 -10  1018.5  1.6  752  313           
12 10.12.17 300 (СЗ) 20000 м  {снег}  5/1 600 м средняя, верхняя 
[Sc|Ac trans|Ci fib]
-10.3 -12.2 86 -10  1020.7  753  317           
15 10.12.17 340 (С) 4000 м  слаб. ливневой снег  10/6 300 м кучево-дожд., средняя 
[Cb calv|As trans]
-9.2 -11.3 85 -11  1022.3  1.7  754  316    -8  0.3     
18 10.12.17 320 (СЗ) 20000 м  ледяные иглы{ливн. осадки, снег}  ясно 
-10.9 -12.7 87 -13  1024.1  1.6  756  318           
21 10.12.17 330 (СЗ) 20000 м  ледяные иглы{снег}  4/0 верхняя 
[Ci fib]
-11.7 -13.3 88 -12  1025.8  1.6  757  320           
00 11.12.17 320 (СЗ) 4000 м  слаб. ливневой снег  8/4 300 м кучево-дожд., средняя 
[Cb calv|Ac trans]
-12.6 -14.4 86 -15  1027.6  1.7  758  322           
03 11.12.17 310 (СЗ) 4000 м  слаб. ливневой снег  9/5 300 м кучево-дожд., средняя, верхняя 
[Cb calv|Ac trans|Ci fib]
-12.3 -14.3 85 -14  1028.9  1.4  759  322  -12.8    0.2  10  равномерный
сухой снег
100% 
06 11.12.17 340 (С) 10 км  слаб. ливневой снег  9/6 300 м кучево-дожд., средняя 
[Cb calv|Ac und]
-13.1 -15.1 85 -15  1030.8  1.8  761  323  -13.1         
09 11.12.17 320 (СЗ) 20000 м  в посл. час ливневой снег  1/0 верхняя 
[Ci sp]
-12.5 -14.8 83 -15  1031.4  0.6  761  323           
12 11.12.17 340 (С) 10 км  слаб. ливневой снег  9/4 300 м кучево-дожд., средняя, верхняя 
[Cb calv|Ac trans|Ci sp]
-14.4 -16.2 86 -14  1033.1  1.5  762  326           
15 11.12.17 тихо ()   20000 м  {ливн. осадки}  10/1 600 м верхняя 
[Sc|Cs]
-17.9 -19.9 84 -18  1034.2  0.9  763  330    -12.3  0.3     
18 11.12.17 290 (З) 4000 м  снежные кристаллы{ливн. осадки}  10/0 средняя 
[Ac As]
-16.3 -18.4 84 -16  1034.5  0.4  763  328           
21 11.12.17 тихо ()   10 км  снежные кристаллы  10/3 600 м средняя 
[Sc|As trans]
-16.9 -19 84 -17  1034.9  0.3  763  329           
00 12.12.17 тихо ()   20000 м  {снег}  8/1 600 м средняя, верхняя 
[Sc|Ac trans|Ci sp]
-20.2 -22.6 81 -20  1035.1  0.1  763  334           
03 12.12.17 тихо ()   20000 м    4/1 600 м средняя, верхняя 
[Sc|Ac trans|Ci fib]
-20.5 -22.9 81 -21  1035.6  0.5  764  334  -21.4    0.2  11  равномерный
сухой снег
100% 
06 12.12.17 тихо ()   10 км  в посл. час ливневой снег  1/0 средняя 
[Ac trans]
-21.3 -24 79 -21  1036.1  0.4  764  336  -22.2         
09 12.12.17 180 (Ю) 20000 м    1/0 верхняя 
[Ci fib]
-12.9 -15.6 80 -13  1035.4  -0.1  764  324           
12 12.12.17 140 (ЮВ) 20000 м    ясно 
-17.4 -19.4 84 -18  1036.1  0.4  764  330           
15 12.12.17 150 (ЮВ) 20000 м    ясно 
-18.8 -20.8 84 -19  1036.6  0.4  764  332    -12.8  0.0     
Время (UTC), дата Ветер
(°,м/с) 
Видим.   Явления Облачность Т
(°С)
Тd
(°С)
f(%) Тe
(°С)
Pmin
(гПа)
dP
(гПа)
Po
(мм)
O2
(г/м3)
Тmin Tmax R s Состояние
почвы

Для получения пояснительной информации подведите курсор к названию столбца.

ПОГОДА Верхотурье - архив

Всё, что Вы хотите узнать о погоде Верхотурье - удобно и подробно!

Выберите нужную дату (начиная с 1 января 2015* года) и нажмите кнопку "Найти".
Будут отображены архивные сводки погоды по пункту Верхотурье, начиная с указанной даты.


Отображать данные в формате CSV (для использования в таблицах Excel)


Внимание! Наш архив погоды предназначен исключительно для личного некоммерческого использования в познавательных целях. Если Вам необходимы официальные справки о состоянии погоды (для производственных, юридических, коммерческих и т.п. целей), обращайтесь в органы Росгидромета.

*Примечание: данная дата относится к архиву по метеостанциям СССР (Россия, СНГ, Балтия).
Архив по метеостанциям Зарубежной Европы и Азии (кроме Китая) хранится 10 дней, по другим регионам земного шара (Китай, Африка, Америка, Австралия, Океания) - 1 день.

Верхотурье - район местоположения метеостанции


Название, широта, долгота, высота метеостанции:
Верхотурье 58.9°ш. 60.8°д. 125 м над ур. моря [Российская Федерация]

Дополнительная информация

В oтличие oт бoльшинства пoгoдных сайтoв мы публикуем пoдрoбную метеoинфoрмацию в детальнoм прoфессиoнальнoм фoрмате.

Характеристики температуры и влажнoсти вoздуха измеряются на высoте 2 м в тени вдали oт зданий и деревьев.
Скoрoсть ветра измеряется на высoте 10 м (на урoвне рoста челoвека скoрoсть ветра ниже в 1.5-2 раза). Если метеoстанция нахoдится в гoрoде или в лесу, тo скoрoсть ветра занижена на 2-4 м/с пo сравнению с oткрытым местoм. Скoрoсть ветра над акватoриями крупных рек и oзёр, а также на вершинах хoлмoв на 2-5 м/с выше, чем в oбычных услoвиях.
Атмoсфернoе давление в разных тoчках местнoсти мoжет значительнo oтличаться oт давления на метеoстанции, в зависимoсти oт услoвий рельефа (при пoдъёме на 10 м давление пoнижается примернo на 1 мм рт.ст.).